Overview Statistics Trail Chart Weather Telemetry Raw packets
 

This is the latest recevied weather packets stored in our database for station/object PY2XH-13. If no packets are shown the sender has not sent any weather packets the latest 10 day(s).

<< 3 4 5 6 7 8 9 >>
Time Temp. Humidity Pressure Rain* Wind** Luminosity Snow
1788450364 21.67° C 51% 1030.1 hPa - - - -
1788448564 21.11° C 54% 1030.7 hPa - - - -
1788446766 20.56° C 55% 1031.4 hPa - - - -
1788444964 20° C 58% 1031.8 hPa - - - -
1788443164 20° C 60% 1032.5 hPa - - - -
1788441365 20° C 60% 1032.8 hPa - - - -
1788439564 19.44° C 61% 1033.1 hPa - - - -
1788437764 19.44° C 61% 1033.1 hPa - - - -
1788435964 19.44° C 60% 1033.2 hPa - - - -
1788434165 19.44° C 61% 1033.4 hPa - - - -
1788432365 19.44° C 60% 1033.4 hPa - - - -
1788430565 19.44° C 61% 1033.4 hPa - - - -
1788428765 19.44° C 61% 1033.2 hPa - - - -
1788426967 20° C 60% 1033 hPa - - - -
1788425164 20° C 58% 1033 hPa - - - -
1788423364 20° C 58% 1032.7 hPa - - - -
1788421564 20° C 58% 1032.5 hPa - - - -
1788419764 20° C 58% 1032.8 hPa - - - -
1788417964 20.56° C 58% 1032.6 hPa - - - -
1788416164 20.56° C 58% 1032.8 hPa - - - -
1788414364 20.56° C 58% 1033.2 hPa - - - -
1788412564 20.56° C 58% 1033.3 hPa - - - -
1788410764 20.56° C 58% 1033.5 hPa - - - -
1788408964 20.56° C 58% 1033.7 hPa - - - -
1788407164 20.56° C 58% 1034.1 hPa - - - -

* Rain since midnight (hover to see other rain measurements)
** Current wind speed in m/s (hover to see current wind gust speed)